Regional Weather Roundup
Issued by NWS

Home | Current Version | Previous Version | Graphics & Text | Print | Product List | Glossary On
Versions: 1 2 3 4 5 6 7 8 9 10 11 12 13 14 15 16 17 18 19 20 21 22 23 24 25 26 27 28 29 30 31 32 33 34 35 36 37 38 39 40 41 42 43 44 45 46 47 48 49 50
000
ASUS45 KBOU 021807
RWRCO

WEATHER ROUNDUP FOR COLORADO
NATIONAL WEATHER SERVICE DENVER/BOULDER CO
1200 PM MDT SAT MAY 02 2015

NOTE: "FAIR" INDICATES FEW OR NO CLOUDS BELOW 12000 FEET WITH NO
SIGNIFICANT WEATHER AND/OR OBSTRUCTIONS TO VISIBILITY.

COZ001>005-013-030-031-021900-
...NORTHWEST COLORADO...

CITY           SKY/WX    TMP DP  RH WIND       PRES   REMARKS
CRAIG          SUNNY     68  38  33 VRB3      30.05F
HAYDEN         SUNNY     63  34  34 CALM      30.08F
MEEKER         SUNNY     70  32  24 W8        30.05F
MOUNT WERNER   NOT AVBL
STEAMBOAT SPGS SUNNY     62  35  35 SW8       30.09F
WALDEN         SUNNY     59  28  31 SW20G26   30.13F
$$

COZ006>008-011-021900-
...WEST CENTRAL VALLEYS...

CITY           SKY/WX    TMP DP  RH WIND       PRES   REMARKS
GRAND JUNCTION MOSUNNY   73  37  27 CALM      29.99F
MONTROSE       MOSUNNY   73  32  22 NE5       30.06S
EAGLE          MOSUNNY   66  34  30 CALM      30.08
RIFLE          SUNNY     71  34  25 NW6       30.01F
DELTA          MOSUNNY   74  34  22 SE5       30.02F
NUCLA          MOSUNNY   72  30  21 N5        30.11F
$$

COZ017>023-064>068-021900-
...SOUTHWEST COLORADO...

CITY           SKY/WX    TMP DP  RH WIND       PRES   REMARKS
DURANGO        PTSUNNY   68  32  26 SW8       30.13F
CORTEZ         SUNNY     72  29  20 S3        30.09F
PAGOSA SPRINGS PTSUNNY   68  21  17 SW6       30.17F THUNDER
TELLURIDE      CLOUDY    57  26  30 NW13G18   30.27R
WOLF CREEK PAS NOT AVBL
$$

COZ009-010-012-014-032>034-037-058>063-021900-
...CENTRAL COLORADO...

CITY           SKY/WX    TMP DP  RH WIND       PRES   REMARKS
ASPEN          PTSUNNY   62  28  27 N12G21    30.11F
BUENA VISTA    NOT AVBL
COPPER MTN     PTSUNNY   46  19  34 SW13G24   30.36S
BERTHOUD PASS  PTSUNNY   36  30  80 NW25G48   30.38R
COTTONWOOD PAS PTSUNNY   61  14  16 W3G20     30.25F
GUNNISON       SUNNY     64  32  29 SW15      30.17F
KREMMLING      MOSUNNY   59  36  41 CALM      30.14F
LEADVILLE      MOSUNNY   55  19  24 W9G22     30.23F
MONARCH PASS   SUNNY     43  19  39 W32G43    30.48S
SALIDA         MOSUNNY   73  21  14 W14G23    30.19F
SUNLIGHT       MOSUNNY   52  28  40 SW3       30.33F
WILKERSON PASS MOSUNNY   48  27  43 SW6       30.35F
$$

COZ069>075-021900-
...SAN LUIS VALLEY/SANGRE DE CRISTO MOUNTAINS...

CITY           SKY/WX    TMP DP  RH WIND       PRES   REMARKS
ALAMOSA        SUNNY     68  27  21 CALM      30.14F
LA VETA PASS   PTSUNNY   55  27  33 MISG      30.30F
SAGUACHE       MOSUNNY   63  34  34 CALM      30.19S
$$

COZ035-036-038>040-021900-
...NORTHERN COLORADO FRONT RANGE...

CITY           SKY/WX    TMP DP  RH WIND       PRES   REMARKS
DENVER INTL AP PTSUNNY   73  29  19 CALM      29.99F
DMNS CITY PARK   N/A     73  35  24 SE6       29.98F
AURORA         PTSUNNY   72  33  24 NW6       30.01F
FRONT RANGE AP PTSUNNY   73  30  20 CALM      30.01F
ERIE MUNI ARPT PTSUNNY   72  35  25 SE3       29.97F
BOULDER MUN AP PTSUNNY   72  34  25 E6        29.97F
CENTENNIAL     PTSUNNY   70  31  23 CALM      30.02F
BROOMFIELD     PTSUNNY   70  37  30 SE6       30.01F
FORT COLLINS   PTSUNNY   70  46  43 CALM      29.98F
LONGMONT       PTSUNNY   78  38  24 CALM      29.98F
$$

COZ041-046-047-076>085-087-088-021900-
...PIKES PEAK/PALMER DIVIDE AND SOUTHERN FOOTHILLS...

CITY           SKY/WX    TMP DP  RH WIND       PRES   REMARKS
COLO. SPRINGS  PTSUNNY   74  28  18 VRB6      30.04F
A. F. ACADEMY  PTSUNNY   70  29  22 VRB5      30.05F
ELLICOTT       MOSUNNY  N/A N/A N/A N8G28     30.03F
FALCON         MOSUNNY   70  26  19 W7        30.10S
FORT CARSON    MOSUNNY   74  36  24 VRB3      30.02F
LIMON          MOSUNNY   74  28  18 VRB5G16   30.00F
MONUMENT HILL  PTSUNNY   68  32  26 SW5       30.09S
TRINIDAD       PTSUNNY   76  32  20 SW8       30.03F
$$

COZ042>045-048>051-090-091-021900-
...NORTHEAST COLORADO...

CITY           SKY/WX    TMP DP  RH WIND       PRES   REMARKS
GREELEY ARPT   PTSUNNY   73  46  38 CALM      29.97F
AKRON          MOSUNNY   74  39  28 W10       29.95F
BURLINGTON     MOSUNNY   78  41  26 CALM      29.93F
WRAY           SUNNY     77  48  36 CALM      29.90F
STERLING       MOSUNNY   75  45  33 SW7       29.90F
HOLYOKE        NOT AVBL
FORT MORGAN    MOSUNNY  N/A N/A N/A W6        29.95F
$$

COZ086-089-092>099-021900-
...SOUTHEAST COLORADO...

CITY           SKY/WX    TMP DP  RH WIND       PRES   REMARKS
PUEBLO         PTSUNNY   78  36  21 W9        29.96F
LA JUNTA       MOSUNNY   81  44  27 W12       29.94F
LAMAR          MOSUNNY   75  53  46 NW8       29.92F
SPRINGFIELD      N/A     79  44  28 VRB3      29.96F
$$



USA.gov is the U.S. government's official web portal to all federal, state and local government web resources and services.